Home > Weather > Salta > Past weeks

Flag for Argentina Past Weather in Salta, Salta, Argentina — Yesterday and Last 2 Weeks

Now
41 °F

Passing clouds.


Feels Like: 41 °F
Forecast: 33 / 56 °F
Wind: No wind

Location: Salta Aerodrome

Current Time: Jun 28, 2016 at 5:03:16 AM

Latest Report: Jun 28, 2016 at 4:00 AM


Visibility: N/A

Pressure: 30.21 "Hg (26.12 "Hg at 1184m altitude)

Humidity: 93%

Dew Point: 39 °F

Location of SaltaLocation

Past Weather in Salta — Graph

°F

Salta Temperature Yesterday

Maximum temperature yesterday: 48 °F (at 2:00 PM)
Minimum temperature yesterday: 41 °F (at 1:00 AM)
Average temperature yesterday: 44 °F

High & Low Weather Summary for the Past Weeks

 TemperatureHumidityPressure
High70 °F (Jun 14, 4:00 PM)100% (Jun 14, 5:00 AM)30.36 "Hg (Jun 14, 5:00 AM)
Low28 °F (Jun 22, 7:00 AM)34% (Jun 22, 2:00 PM)29.95 "Hg (Jun 23, 5:00 PM)
Average48 °F80%30.20 "Hg
* Reported Jun 13 3:00 AM — Jun 28 3:00 AM, Salta, Weather by CustomWeather, © 2016

Note: Actual official high and low records may vary slightly from our data, if they occured in-between our weather recording intervals... More about our weather records

Advertising

Salta Weather History for the Previous 24 Hours

Scroll right to see more
 ConditionsComfort  
Time TempWeatherWind HumidityBarometerVisibility
3:00 AM
Tue, Jun 28
43 °FPassing clouds.3 mph93%30.24 "HgN/A
2:00 AM43 °FOvercast.5 mph93%30.27 "HgN/A
1:00 AM43 °FOvercast.3 mph93%30.27 "HgN/A
12:00 AM43 °FOvercast.3 mph93%30.27 "HgN/A
11:00 PM
Mon, Jun 27
43 °FOvercast.6 mph93%30.27 "HgN/A
10:00 PM43 °FPassing clouds.5 mph93%30.27 "HgN/A
9:00 PM45 °FPassing clouds.5 mph87%30.24 "HgN/A
8:00 PM45 °FPassing clouds.6 mph87%30.24 "HgN/A
7:00 PM46 °FPassing clouds.6 mph82%30.21 "HgN/A
6:00 PM48 °FMostly cloudy.7 mph71%30.21 "HgN/A
5:00 PM48 °FMore clouds than sun.5 mph71%30.18 "HgN/A
4:00 PM48 °FMore clouds than sun.5 mph71%30.21 "HgN/A
3:00 PM48 °FBroken clouds.3 mph71%30.21 "HgN/A
2:00 PM48 °FMore clouds than sun.5 mph71%30.21 "HgN/A
1:00 PM45 °FPartly sunny.2 mph87%30.24 "HgN/A
12:00 PM45 °FDrizzle. Mostly cloudy.5 mph87%30.27 "Hg6 mi
11:00 AM43 °FDrizzle. Mostly cloudy.5 mph93%30.27 "Hg6 mi
10:00 AM43 °FMostly cloudy.3 mph93%30.27 "Hg4 mi
9:00 AM43 °FMostly cloudy.5 mph93%30.27 "Hg4 mi
8:00 AM43 °FMostly cloudy.6 mph93%30.24 "Hg5 mi
7:00 AM43 °FDrizzle. Mostly cloudy.3 mph93%30.21 "Hg5 mi
6:00 AM43 °FDrizzle. Mostly cloudy.5 mph93%30.21 "Hg4 mi
5:00 AM43 °FMostly cloudy.5 mph93%30.24 "HgN/A
Weather by CustomWeather, © 2016

See weather overviewHow to use our weather pages